DW6574 Weather Reports


Display with metric or nautical units.
time (UTC)temp
F
wind
direction
speed
MPH
gust
MPH
rain 1hr
in
rain 24hr
in
rain mn
in
humidity
%
barometer
mb
20260503013028 47 237 0.0 1.0 0.00 0.08 0.08 90 1010.3
20260503011533 47 237 0.0 0.0 0.00 0.08 0.08 90 1010.2
20260503010030 47 237 0.0 0.0 0.00 0.08 0.08 89 1010.0
20260503004526 47 237 0.0 0.0 0.00 0.08 0.08 89 1009.8
20260503003025 47 237 0.0 0.0 0.00 0.08 0.08 89 1009.8
20260503001525 48 237 0.0 0.0 0.00 0.08 0.08 88 1009.8
20260503000024 48 237 0.0 0.0 0.00 0.08 0.08 88 1009.8
20260502234534 49 237 0.0 1.0 0.00 0.08 0.08 88 1009.8
20260502233024 49 214 0.0 0.0 0.00 0.08 0.08 88 1009.7
20260502231523 49 236 0.0 0.0 0.00 0.08 0.08 88 1009.7
20260502230022 49 242 0.0 0.0 0.00 0.08 0.08 87 1009.6
20260502224522 49 242 0.0 2.0 0.01 0.08 0.08 86 1009.6
20260502223022 50 158 0.0 1.0 0.01 0.08 0.08 85 1009.5
20260502221521 50 196 0.0 0.0 0.01 0.08 0.08 84 1009.8
20260502220027 50 148 0.0 0.0 0.01 0.08 0.08 82 1009.8
20260502214520 51 138 0.0 1.0 0.00 0.07 0.07 81 1009.9
20260502213028 52 151 0.0 1.0 0.00 0.07 0.07 78 1009.8
20260502211520 53 308 0.0 6.0 0.00 0.07 0.07 75 1009.8
20260502210022 55 180 1.0 4.0 0.00 0.07 0.07 71 1009.4
20260502204517 55 218 3.0 12.0 0.00 0.07 0.07 68 1009.4
20260502203016 56 261 3.0 10.0 0.00 0.07 0.07 66 1009.3
20260502201514 56 195 2.0 12.0 0.00 0.07 0.07 68 1009.6
20260502200012 55 227 4.0 10.0 0.00 0.07 0.07 66 1009.6
20260502194518 55 233 3.0 11.0 0.00 0.07 0.07 62 1009.8
20260502193008 55 271 3.0 10.0 0.00 0.07 0.07 60 1010.0
20260502191506 55 205 5.0 15.0 0.00 0.07 0.07 57 1010.4
20260502190004 55 157 1.0 10.0 0.00 0.07 0.07 73 1010.3
20260502184508 55 141 5.0 13.0 0.00 0.07 0.07 72 1010.3
20260502183004 53 238 3.0 11.0 0.00 0.07 0.07 76 1010.3
20260502181504 52 211 4.0 8.0 0.00 0.07 0.07 77 1010.2
20260502180115 53 205 2.0 8.0 0.00 0.07 0.07 75 1010.4
20260502163108 55 307 1.0 6.0 0.00 0.07 0.07 69 1010.8
20260502161551 54 254 0.0 2.0 0.00 0.07 0.07 72 1010.9
20260502151551 53 153 1.0 7.0 0.00 0.07 0.07 79 1011.4
20260502123034 49 271 1.0 3.0 0.00 0.01 0.01 82 1012.5
20260502121530 49 193 0.0 1.0 0.00 0.01 0.01 84 1012.1
20260502114524 48 204 0.0 0.0 0.01 0.01 0.01 87 1011.5
20260502113022 47 208 0.0 1.0 0.01 0.01 0.01 86 1011.5
20260502111520 47 208 0.0 0.0 0.01 0.01 0.01 87 1011.6
20260502110019 46 227 0.0 0.0 0.01 0.01 0.01 85 1011.6
20260502104518 46 203 0.0 2.0 0.00 0.00 0.00 84 1011.5
20260502103018 46 209 0.0 1.0 0.00 0.00 0.00 85 1011.2
20260502101518 46 209 0.0 1.0 0.00 0.00 0.00 85 1011.2
20260502091515 46 221 0.0 1.0 0.00 0.00 0.00 83 1010.7
20260502071507 47 219 0.0 1.0 0.00 0.00 0.00 77 1010.9
20260502070104 46 200 0.0 3.0 0.00 0.00 0.00 78 1010.8
20260502064501 46 212 0.0 0.0 0.00 0.00 0.00 77 1011.3
20260502063059 46 205 0.0 1.0 0.00 0.00 0.00 77 1011.1
20260502061558 46 215 0.0 1.0 0.00 0.00 0.00 77 1010.9
20260502060101 45 233 0.0 1.0 0.00 0.00 0.00 76 1010.9
20260502054557 44 207 0.0 1.0 0.00 0.00 0.00 77 1011.0
20260502053053 45 248 0.0 1.0 0.00 0.00 0.00 73 1011.0
20260502051552 45 256 0.0 1.0 0.00 0.00 0.00 74 1011.0
20260502050056 45 250 0.0 0.0 0.00 0.00 0.00 74 1011.0
20260502044554 45 212 0.0 1.0 0.00 0.00 0.00 75 1011.0
20260502043055 45 212 0.0 1.0 0.00 0.00 0.00 76 1011.2
20260502041550 45 224 0.0 1.0 0.00 0.00 0.00 73 1011.1
20260502040044 45 207 0.0 1.0 0.00 0.00 0.00 74 1011.1
20260502034543 45 193 0.0 0.0 0.00 0.00 0.00 74 1011.1
20260502033045 45 199 0.0 0.0 0.00 0.00 0.00 72 1011.3
20260502031541 45 205 0.0 2.0 0.00 0.00 0.00 71 1011.2
20260502030040 46 210 0.0 3.0 0.00 0.00 0.00 69 1010.9
20260502024541 45 218 0.0 1.0 0.00 0.00 0.00 74 1010.8
20260502023037 45 257 0.0 0.0 0.00 0.00 0.00 68 1010.8
20260502021540 46 257 0.0 0.0 0.00 0.00 0.00 70 1010.8
20260502020042 46 257 0.0 0.0 0.00 0.00 0.00 66 1010.9
20260502014550 47 260 0.0 1.0 0.00 0.00 0.00 63 1010.8